When you browse on this site, cookies collect data to enhance your experience and personalize the content and advertising you see.
Visit our Privacy Policy to learn more. By continuing to use the site, you agree to this use of cookies and data.
  • In Latvia
  • List of Countries
  • For 7 days
  • Water Temperature
  • Satellite Maps
  • Weather Map
  • Weather Widgets
  • user-avatar
    Login

    Hourly Weather Ropotamo

    Today, 16 November, Friday

    Time Temperature Precipitation Wind Pressure Humidity
    00:00 +4°C° 0 mm 8 mps 763 mmHg 79%
    01:00 +4°C° 0 mm 8 mps 763 mmHg 79%
    02:00 +3°C° 0 mm 7 mps 763 mmHg 81%
    03:00 +2°C° 0.1 mm 8 mps 763 mmHg 82%
    04:00 +1°C° 0.1 mm 8 mps 764 mmHg 83%
    05:00 +1°C° 0.1 mm 8 mps 764 mmHg 84%
    06:00 +1°C° 0 mm 8 mps 764 mmHg 83%
    07:00 +1°C° 0 mm 8 mps 764 mmHg 83%
    08:00 +1°C° 0 mm 8 mps 765 mmHg 81%
    09:00 +2°C° 0 mm 8 mps 765 mmHg 78%
    10:00 +4°C° 0 mm 8 mps 765 mmHg 75%
    11:00 +4°C° 0 mm 8 mps 766 mmHg 71%
    12:00 +4°C° 0 mm 8 mps 766 mmHg 70%
    13:00 +4°C° 0 mm 7 mps 766 mmHg 68%
    14:00 +4°C° 0 mm 7 mps 766 mmHg 66%
    15:00 +4°C° 0 mm 7 mps 766 mmHg 68%
    16:00 +3°C° 0 mm 7 mps 767 mmHg 69%
    17:00 +2°C° 0 mm 7 mps 767 mmHg 70%
    18:00 +2°C° 0 mm 6 mps 767 mmHg 72%
    19:00 +1°C° 0 mm 6 mps 767 mmHg 73%
    20:00 +1°C° 0 mm 6 mps 767 mmHg 75%
    21:00 -1°C° 0 mm 6 mps 768 mmHg 76%
    22:00 -1°C° 0 mm 6 mps 768 mmHg 78%
    23:00 0°C° 0 mm 5 mps 768 mmHg 80%

    Tomorrow, 17 November, Saturday

    Time Temperature Precipitation Wind Pressure Humidity
    00:00 0°C° 0 mm 5 mps 768 mmHg 81%
    01:00 0°C° 0 mm 5 mps 768 mmHg 83%
    02:00 0°C° 0 mm 5 mps 768 mmHg 84%
    03:00 0°C° 0 mm 5 mps 768 mmHg 84%
    04:00 0°C° 0 mm 5 mps 768 mmHg 85%
    05:00 0°C° 0 mm 5 mps 768 mmHg 85%
    06:00 0°C° 0 mm 5 mps 768 mmHg 85%
    07:00 0°C° 0 mm 5 mps 768 mmHg 85%
    08:00 0°C° 0 mm 5 mps 768 mmHg 84%
    09:00 +2°C° 0 mm 5 mps 768 mmHg 79%
    10:00 +3°C° 0 mm 5 mps 768 mmHg 74%
    11:00 +5°C° 0 mm 5 mps 768 mmHg 68%
    12:00 +6°C° 0 mm 5 mps 768 mmHg 67%
    13:00 +6°C° 0 mm 5 mps 767 mmHg 66%
    14:00 +6°C° 0 mm 5 mps 767 mmHg 65%
    15:00 +6°C° 0 mm 5 mps 767 mmHg 69%
    16:00 +5°C° 0 mm 5 mps 767 mmHg 73%
    17:00 +3°C° 0 mm 5 mps 767 mmHg 77%
    18:00 +3°C° 0 mm 5 mps 767 mmHg 80%
    19:00 +3°C° 0 mm 4 mps 767 mmHg 82%
    20:00 +3°C° 0 mm 4 mps 767 mmHg 85%
    21:00 +3°C° 0 mm 4 mps 767 mmHg 86%
    22:00 +3°C° 0 mm 4 mps 767 mmHg 87%
    23:00 +3°C° 0 mm 3 mps 766 mmHg 88%

    Day after tomorrow, 18 November, Sunday

    Time Temperature Precipitation Wind Pressure Humidity
    00:00 +4°C° 0 mm 3 mps 766 mmHg 89%
    01:00 +4°C° 0 mm 3 mps 766 mmHg 90%
    02:00 +4°C° 0 mm 3 mps 766 mmHg 91%
    03:00 +4°C° 0 mm 4 mps 766 mmHg 91%
    04:00 +4°C° 0 mm 4 mps 766 mmHg 90%
    05:00 +3°C° 0 mm 5 mps 765 mmHg 90%
    06:00 +5°C° 0.1 mm 5 mps 765 mmHg 89%
    07:00 +4°C° 0.1 mm 6 mps 765 mmHg 88%
    08:00 +4°C° 0.1 mm 6 mps 765 mmHg 87%
    09:00 +5°C° 0.1 mm 6 mps 765 mmHg 85%
    10:00 +5°C° 0.1 mm 6 mps 765 mmHg 83%
    11:00 +7°C° 0.1 mm 6 mps 765 mmHg 81%
    12:00 +7°C° 0.1 mm 6 mps 764 mmHg 81%
    13:00 +7°C° 0.1 mm 6 mps 764 mmHg 81%
    14:00 +8°C° 0.1 mm 7 mps 763 mmHg 81%
    15:00 +8°C° 0.1 mm 6 mps 763 mmHg 82%
    16:00 +8°C° 0.1 mm 6 mps 762 mmHg 84%
    17:00 +7°C° 0.1 mm 6 mps 762 mmHg 85%
    18:00 +6°C° 0.2 mm 7 mps 762 mmHg 85%
    19:00 +6°C° 0.2 mm 7 mps 761 mmHg 86%
    20:00 +6°C° 0.2 mm 7 mps 761 mmHg 86%
    21:00 +6°C° 0.5 mm 7 mps 760 mmHg 87%
    22:00 +6°C° 0.5 mm 7 mps 760 mmHg 88%
    23:00 +6°C° 0.5 mm 7 mps 759 mmHg 89%

    19 November, Monday

    Time Temperature Precipitation Wind Pressure Humidity
    00:00 +6°C° 1.3 mm 7 mps 759 mmHg 89%
    01:00 +6°C° 1.3 mm 7 mps 758 mmHg 90%
    02:00 +6°C° 1.3 mm 7 mps 758 mmHg 91%
    03:00 +6°C° 0.8 mm 7 mps 758 mmHg 91%
    04:00 +6°C° 0.8 mm 7 mps 757 mmHg 91%
    05:00 +6°C° 0.8 mm 7 mps 757 mmHg 91%
    06:00 +6°C° 0.4 mm 7 mps 757 mmHg 91%
    07:00 +8°C° 0.4 mm 7 mps 756 mmHg 91%
    08:00 +8°C° 0.4 mm 7 mps 756 mmHg 91%
    09:00 +8°C° 0.3 mm 7 mps 756 mmHg 90%
    10:00 +8°C° 0.3 mm 7 mps 756 mmHg 89%
    11:00 +9°C° 0.3 mm 7 mps 756 mmHg 88%
    12:00 +9°C° 0.3 mm 6 mps 756 mmHg 89%
    13:00 +9°C° 0.3 mm 6 mps 756 mmHg 89%
    14:00 +9°C° 0.3 mm 6 mps 755 mmHg 89%
    15:00 +9°C° 0.1 mm 5 mps 755 mmHg 91%
    16:00 +9°C° 0.1 mm 5 mps 755 mmHg 92%
    17:00 +10°C° 0.1 mm 4 mps 755 mmHg 94%
    18:00 +10°C° 0.1 mm 4 mps 756 mmHg 95%
    19:00 +10°C° 0.1 mm 3 mps 756 mmHg 95%
    20:00 +10°C° 0.1 mm 3 mps 756 mmHg 96%
    21:00 +10°C° 0.2 mm 2 mps 756 mmHg 96%
    22:00 +10°C° 0.2 mm 2 mps 756 mmHg 96%
    23:00 +10°C° 0.2 mm 2 mps 756 mmHg 96%

    20 November, Tuesday

    Time Temperature Precipitation Wind Pressure Humidity
    00:00 +10°C° 0.1 mm 2 mps 756 mmHg 96%
    01:00 +10°C° 0.1 mm 2 mps 756 mmHg 96%
    02:00 +10°C° 0.1 mm 2 mps 756 mmHg 95%
    03:00 +9°C° 0 mm 2 mps 757 mmHg 95%
    04:00 +10°C° 0 mm 1 mps 757 mmHg 95%
    05:00 +10°C° 0 mm 1 mps 757 mmHg 95%
    06:00 +10°C° 0 mm 1 mps 757 mmHg 95%
    07:00 +10°C° 0 mm 1 mps 757 mmHg 95%
    08:00 +10°C° 0 mm 1 mps 757 mmHg 95%
    09:00 +12°C° 0 mm 1 mps 757 mmHg 92%
    10:00 +13°C° 0 mm 1 mps 757 mmHg 88%
    11:00 +14°C° 0 mm 1 mps 757 mmHg 84%
    12:00 +14°C° 0.2 mm 2 mps 757 mmHg 87%
    13:00 +14°C° 0.2 mm 2 mps 757 mmHg 89%
    14:00 +13°C° 0.2 mm 3 mps 756 mmHg 91%
    15:00 +13°C° 0.2 mm 4 mps 756 mmHg 92%
    16:00 +14°C° 0.2 mm 4 mps 756 mmHg 93%
    17:00 +14°C° 0.2 mm 4 mps 755 mmHg 94%
    18:00 +14°C° 0.4 mm 5 mps 755 mmHg 93%
    19:00 +14°C° 0.4 mm 5 mps 755 mmHg 93%
    20:00 +14°C° 0.4 mm 6 mps 754 mmHg 92%
    21:00 +15°C° 0.3 mm 6 mps 754 mmHg 91%
    22:00 +15°C° 0.3 mm 6 mps 754 mmHg 89%
    23:00 +16°C° 0.3 mm 7 mps 753 mmHg 87%

    21 November, Wednesday

    Time Temperature Precipitation Wind Pressure Humidity
    00:00 +16°C° 0.1 mm 7 mps 753 mmHg 87%
    01:00 +16°C° 0.1 mm 7 mps 752 mmHg 87%
    02:00 +16°C° 0.1 mm 7 mps 752 mmHg 87%
    03:00 +16°C° 0.1 mm 7 mps 751 mmHg 86%
    04:00 +16°C° 0.1 mm 7 mps 751 mmHg 86%
    05:00 +16°C° 0.1 mm 8 mps 750 mmHg 85%
    06:00 +16°C° 0.1 mm 8 mps 750 mmHg 84%
    07:00 +16°C° 0.1 mm 9 mps 750 mmHg 82%
    08:00 +16°C° 0.1 mm 10 mps 750 mmHg 80%
    09:00 +17°C° 0 mm 9 mps 750 mmHg 77%
    10:00 +18°C° 0 mm 9 mps 749 mmHg 73%
    11:00 +19°C° 0 mm 9 mps 749 mmHg 70%
    12:00 +19°C° 0 mm 9 mps 749 mmHg 66%
    13:00 +21°C° 0 mm 9 mps 749 mmHg 62%
    14:00 +21°C° 0 mm 9 mps 748 mmHg 58%
    15:00 +20°C° 0 mm 8 mps 748 mmHg 61%
    16:00 +18°C° 0 mm 7 mps 749 mmHg 64%
    17:00 +17°C° 0 mm 6 mps 749 mmHg 67%
    18:00 +17°C° 0 mm 6 mps 749 mmHg 70%
    19:00 +16°C° 0 mm 6 mps 749 mmHg 73%
    20:00 +15°C° 0 mm 6 mps 750 mmHg 77%
    21:00 +15°C° 0 mm 5 mps 750 mmHg 78%
    22:00 +15°C° 0 mm 5 mps 751 mmHg 80%
    23:00 +14°C° 0 mm 4 mps 751 mmHg 82%
    Show more